Home   Weather   San Francisco   Past weeks

Flag for USA Past Weather in San Francisco, California, USA — Yesterday and Last 2 Weeks

Now
62 °F

Partly sunny.


Feels Like: 62 °F
Forecast: 54 / 60 °F
Wind: 8 mph from Southwest

Location: San Francisco International Airport

Current Time: Dec 9, 2016 at 5:09:13 pm

Latest Report: Dec 9, 2016 at 3:56 pm


Visibility: 10 mi

Pressure: 30.17 "Hg

Humidity: 78%

Dew Point: 55 °F

Location of San FranciscoLocation

Past Weather in San Francisco — Graph

°F

San Francisco Temperature Yesterday

Maximum temperature yesterday: 61 °F (at 2:56 pm)
Minimum temperature yesterday: 49 °F (at 12:56 am)
Average temperature yesterday: 54 °F

High & Low Weather Summary for the Past Weeks

 TemperatureHumidityPressure
High63 °F (Dec 9, 1:56 pm)97% (Dec 8, 11:56 am)30.29 "Hg (Dec 8, 11:56 am)
Low42 °F (Dec 7, 3:56 am)35% (Dec 2, 2:56 pm)29.80 "Hg (Nov 26, 3:56 am)
Average53 °F73%30.10 "Hg
* Reported Nov 24 3:56 pm — Dec 9 3:56 pm, San Francisco, Weather by CustomWeather, © 2016

Note: Actual official high and low records may vary slightly from our data, if they occured in-between our weather recording intervals... More about our weather records

Advertising

San Francisco Weather History for the Previous 24 Hours

Scroll right to see more
 ConditionsComfort  
Time TempWeatherWind HumidityBarometerVisibility
3:56 pm
Fri, Dec 9
62 °FPartly sunny.8 mph78%30.17 "Hg10 mi
3:03 pm62 °FPartly sunny.9 mph78%30.18 "Hg10 mi
2:56 pm62 °FPartly sunny.8 mph78%30.18 "Hg10 mi
1:56 pm63 °FPartly sunny.8 mph75%30.18 "Hg10 mi
12:56 pm62 °FBroken clouds.5 mph78%30.19 "Hg10 mi
11:56 am62 °FCloudy.9 mph78%30.22 "Hg10 mi
10:56 am57 °FMostly cloudy.No wind93%30.25 "Hg10 mi
9:56 am59 °FMostly cloudy.5 mph90%30.26 "Hg9 mi
8:56 am59 °FMore clouds than sun.5 mph84%30.24 "Hg4 mi
7:56 am59 °FMostly cloudy.3 mph84%30.22 "Hg10 mi
6:56 am60 °FMostly cloudy.6 mph80%30.21 "Hg10 mi
5:56 am60 °FPartly cloudy.7 mph80%30.20 "Hg10 mi
4:56 am60 °FPassing clouds.5 mph83%30.19 "Hg10 mi
3:56 am59 °FMostly cloudy.3 mph87%30.19 "Hg8 mi
2:56 am57 °FLight rain. Mostly cloudy.5 mph93%30.20 "Hg10 mi
1:56 am57 °FOvercast.6 mph93%30.20 "Hg10 mi
12:56 am57 °FMostly cloudy.5 mph93%30.20 "Hg10 mi
11:56 pm
Thu, Dec 8
58 °FPartly cloudy.5 mph90%30.20 "Hg10 mi
10:56 pm58 °FMostly cloudy.5 mph90%30.19 "Hg10 mi
9:56 pm58 °FPassing clouds.5 mph93%30.18 "Hg9 mi
8:56 pm58 °FPassing clouds.6 mph93%30.17 "Hg10 mi
7:56 pm57 °FLight rain. Passing clouds.5 mph96%30.16 "Hg10 mi
6:56 pm58 °FLight rain. Mostly cloudy.No wind93%30.14 "Hg10 mi
5:56 pm59 °FLight rain. Overcast.6 mph93%30.14 "Hg7 mi
Weather by CustomWeather, © 2016

See weather overviewHow to use our weather pages